Precipitable_Water
0.26 0.17 0.14 0.13 0.13 0.13 0.14 0.16 0.18 0.20 0.20 0.20 0.18 0.18 0.17 0.16 0.16 0.18 0.18 0.20 0.22 0.20 0.20 0.20 0.22 0.27 0.39 0.51 0.62 0.73 0.80 0.74 0.79 0.84 0.91 1.06 0.96 0.96 0.96 0.95 0.96 1.01 1.06 1.18 1.21 1.25 1.26 1.28 1.32 1.34 1.36 1.36 1.38 1.40 1.41 1.41 1.40 1.42 1.40 1.38 1.32 1.38 1.41 1.37 1.34 1.31 1.25 1.17 1.12 1.11 1.07 1.04 1.09 1.09 1.12 1.12 1.15 1.18 1.20 1.22 1.23 1.23 1.23 1.23 1.23 1.22
0.25 0.17 0.15 0.16 0.16 0.15 0.15 0.17 0.18 0.19 0.20 0.19 0.18 0.17 0.17 0.17 0.16 0.18 0.18 0.20 0.22 0.19 0.19 0.21 0.25 0.31 0.36 0.51 0.63 0.75 0.69 0.61 0.66 0.65 0.64 0.96 1.07 0.97 0.95 0.96 0.97 1.05 1.14 1.17 1.16 1.21 1.24 1.26 1.28 1.30 1.31 1.33 1.29 1.34 1.39 1.35 1.35 1.37 1.39 1.35 1.33 1.37 1.40 1.37 1.33 1.27 1.20 1.17 1.12 1.06 1.05 1.06 1.06 1.05 1.04 1.03 1.10 1.13 1.17 1.20 1.22 1.22 1.22 1.22 1.21 1.22
0.18 0.16 0.18 0.19 0.19 0.18 0.17 0.17 0.18 0.18 0.19 0.19 0.17 0.17 0.17 0.17 0.18 0.19 0.20 0.21 0.21 0.20 0.19 0.20 0.20 0.29 0.38 0.50 0.63 0.64 0.57 0.55 0.60 0.58 0.59 0.79 1.01 1.07 0.99 0.98 0.98 1.04 1.06 1.10 1.14 1.18 1.20 1.22 1.23 1.25 1.27 1.32 1.35 1.36 1.37 1.40 1.38 1.35 1.36 1.37 1.36 1.36 1.34 1.32 1.28 1.21 1.14 1.15 1.15 1.10 1.07 1.05 1.02 1.09 1.10 1.10 1.13 1.16 1.15 1.18 1.20 1.20 1.20 1.18 1.16 1.16
0.16 0.18 0.20 0.22 0.21 0.18 0.17 0.17 0.17 0.18 0.19 0.18 0.18 0.16 0.16 0.18 0.17 0.15 0.19 0.21 0.21 0.20 0.19 0.20 0.18 0.22 0.41 0.60 0.59 0.65 0.63 0.65 0.72 0.79 0.86 0.89 0.93 1.01 1.03 1.00 0.99 1.03 1.03 1.04 1.08 1.12 1.17 1.18 1.19 1.21 1.23 1.27 1.32 1.35 1.37 1.34 1.31 1.34 1.35 1.36 1.35 1.32 1.29 1.25 1.22 1.18 1.17 1.16 1.16 1.14 1.11 1.08 1.05 1.02 1.10 1.12 1.14 1.13 1.13 1.12 1.15 1.16 1.14 1.11 1.09 1.10
0.18 0.20 0.25 0.23 0.21 0.19 0.16 0.16 0.15 0.16 0.16 0.18 0.18 0.17 0.17 0.18 0.18 0.18 0.18 0.20 0.21 0.22 0.22 0.20 0.19 0.19 0.29 0.44 0.58 0.69 0.79 0.72 0.70 0.76 0.86 0.90 1.01 1.13 1.19 1.11 1.13 1.08 1.07 1.04 1.06 1.10 1.12 1.12 1.13 1.16 1.21 1.27 1.28 1.31 1.29 1.24 1.24 1.28 1.30 1.31 1.29 1.25 1.21 1.22 1.20 1.16 1.16 1.14 1.10 1.09 1.08 1.08 1.06 1.09 1.07 1.03 1.03 1.07 1.09 1.09 1.09 1.08 1.09 1.06 1.04 1.04
0.20 0.22 0.24 0.22 0.20 0.19 0.17 0.15 0.15 0.15 0.15 0.17 0.19 0.18 0.18 0.20 0.19 0.19 0.20 0.19 0.18 0.17 0.20 0.19 0.15 0.15 0.23 0.37 0.46 0.57 0.70 0.66 0.69 0.68 0.72 0.81 0.90 0.99 1.04 1.12 1.15 1.15 1.15 1.09 1.07 1.08 1.11 1.12 1.14 1.16 1.20 1.24 1.26 1.25 1.25 1.23 1.22 1.24 1.24 1.24 1.24 1.22 1.21 1.18 1.18 1.18 1.15 1.08 1.04 1.00 0.97 0.95 0.96 0.95 0.96 0.93 0.94 0.98 1.00 1.01 1.07 1.05 1.04 1.02 1.00 1.00
0.21 0.24 0.22 0.20 0.19 0.18 0.17 0.16 0.16 0.16 0.15 0.15 0.16 0.20 0.20 0.20 0.20 0.20 0.19 0.18 0.15 0.14 0.19 0.21 0.14 0.13 0.20 0.28 0.44 0.55 0.58 0.65 0.68 0.63 0.63 0.70 0.80 0.88 0.98 1.09 1.11 1.09 1.08 1.12 1.12 1.12 1.10 1.14 1.14 1.15 1.19 1.23 1.23 1.25 1.28 1.28 1.25 1.25 1.23 1.21 1.20 1.19 1.18 1.18 1.17 1.16 1.11 1.08 1.09 1.08 1.05 1.03 1.00 0.96 0.99 1.05 1.06 1.04 1.05 1.04 0.97 0.95 0.97 0.97 0.95 0.95
0.21 0.22 0.21 0.21 0.18 0.17 0.16 0.15 0.17 0.16 0.14 0.14 0.19 0.21 0.21 0.20 0.19 0.19 0.19 0.18 0.17 0.20 0.20 0.20 0.18 0.15 0.15 0.22 0.42 0.55 0.57 0.59 0.63 0.63 0.72 0.79 0.86 0.85 0.90 1.03 1.14 1.11 1.10 1.09 1.09 1.10 1.14 1.17 1.14 1.14 1.21 1.25 1.26 1.27 1.27 1.26 1.26 1.24 1.23 1.21 1.20 1.20 1.18 1.19 1.19 1.15 1.15 1.09 1.10 1.08 1.06 1.05 1.02 1.00 0.98 1.03 1.05 1.07 1.05 0.97 0.91 0.90 0.90 0.92 0.93 0.92
0.19 0.18 0.20 0.18 0.18 0.16 0.15 0.16 0.18 0.18 0.15 0.15 0.19 0.21 0.20 0.20 0.20 0.20 0.19 0.19 0.19 0.18 0.15 0.18 0.20 0.16 0.15 0.22 0.41 0.53 0.50 0.55 0.57 0.59 0.63 0.77 0.85 0.89 0.92 1.06 1.07 1.16 1.14 1.12 1.09 1.09 1.14 1.14 1.13 1.18 1.21 1.28 1.28 1.25 1.21 1.22 1.24 1.25 1.26 1.25 1.21 1.17 1.18 1.19 1.18 1.15 1.13 1.12 1.09 1.07 1.05 1.01 1.05 1.05 1.04 1.06 1.06 1.01 0.97 0.89 0.89 0.86 0.86 0.88 0.91 0.92
0.19 0.18 0.20 0.20 0.18 0.15 0.17 0.18 0.18 0.18 0.14 0.17 0.20 0.21 0.21 0.21 0.20 0.20 0.18 0.18 0.18 0.16 0.14 0.16 0.19 0.16 0.16 0.23 0.33 0.47 0.47 0.45 0.49 0.57 0.61 0.71 0.82 0.88 0.92 1.00 1.09 1.16 1.15 1.16 1.14 1.14 1.16 1.14 1.13 1.18 1.21 1.21 1.21 1.21 1.22 1.23 1.25 1.25 1.26 1.24 1.19 1.17 1.18 1.17 1.15 1.11 1.09 1.09 1.09 1.05 1.04 1.01 1.01 1.04 1.05 1.04 0.98 0.92 0.89 0.84 0.83 0.84 0.84 0.86 0.87 0.88
0.21 0.22 0.23 0.20 0.18 0.19 0.18 0.19 0.19 0.18 0.18 0.19 0.18 0.18 0.18 0.19 0.19 0.20 0.19 0.18 0.17 0.14 0.14 0.18 0.20 0.19 0.15 0.20 0.27 0.33 0.37 0.41 0.45 0.53 0.68 0.80 0.87 0.91 0.96 1.01 1.08 1.11 1.12 1.14 1.14 1.14 1.13 1.16 1.14 1.16 1.14 1.12 1.13 1.17 1.19 1.19 1.21 1.22 1.21 1.20 1.16 1.17 1.16 1.13 1.10 1.07 1.04 1.07 1.08 1.05 1.04 1.03 1.01 1.03 1.01 0.96 0.90 0.87 0.84 0.79 0.79 0.81 0.83 0.86 0.85 0.85
0.20 0.22 0.20 0.21 0.24 0.23 0.21 0.18 0.20 0.20 0.19 0.18 0.16 0.15 0.16 0.15 0.17 0.16 0.17 0.19 0.14 0.12 0.16 0.19 0.20 0.20 0.14 0.18 0.29 0.37 0.43 0.49 0.49 0.48 0.60 0.73 0.80 0.88 0.95 1.01 1.09 1.12 1.12 1.14 1.12 1.07 1.08 1.08 1.10 1.15 1.12 1.08 1.07 1.10 1.12 1.14 1.17 1.17 1.17 1.14 1.09 1.10 1.09 1.08 1.07 1.05 1.05 1.07 1.08 1.08 1.07 1.05 1.05 1.03 0.98 0.91 0.84 0.84 0.80 0.79 0.78 0.81 0.81 0.81 0.83 0.85
0.16 0.18 0.22 0.22 0.23 0.22 0.19 0.18 0.18 0.19 0.18 0.17 0.15 0.15 0.12 0.12 0.12 0.11 0.13 0.12 0.12 0.12 0.17 0.21 0.21 0.18 0.17 0.20 0.29 0.37 0.43 0.49 0.56 0.54 0.55 0.64 0.74 0.85 0.93 0.98 1.06 1.11 1.12 1.11 1.09 1.04 1.04 1.01 1.06 1.10 1.10 1.07 1.06 1.05 1.07 1.10 1.12 1.13 1.10 1.07 1.04 1.03 1.05 1.05 1.05 1.04 1.06 1.07 1.08 1.08 1.08 1.07 1.06 1.02 0.96 0.90 0.85 0.85 0.81 0.81 0.78 0.77 0.76 0.78 0.78 0.83
0.14 0.19 0.21 0.22 0.22 0.22 0.21 0.14 0.15 0.14 0.16 0.16 0.14 0.12 0.11 0.10 0.09 0.09 0.11 0.13 0.14 0.16 0.19 0.20 0.23 0.17 0.23 0.26 0.35 0.37 0.46 0.52 0.57 0.65 0.75 0.78 0.79 0.85 0.91 0.97 1.04 1.09 1.10 1.10 1.06 1.03 1.02 1.03 1.11 1.14 1.13 1.12 1.09 1.08 1.08 1.08 1.09 1.07 1.05 1.05 1.02 1.00 1.04 1.05 1.04 1.05 1.06 1.07 1.09 1.10 1.09 1.07 1.05 1.00 0.95 0.89 0.85 0.85 0.85 0.84 0.80 0.79 0.79 0.79 0.81 0.83
0.10 0.11 0.15 0.20 0.16 0.22 0.20 0.18 0.15 0.14 0.15 0.16 0.17 0.14 0.11 0.11 0.09 0.08 0.10 0.10 0.11 0.13 0.18 0.26 0.18 0.15 0.19 0.22 0.44 0.46 0.55 0.60 0.69 0.74 0.79 0.84 0.85 0.91 0.98 1.01 1.05 1.07 1.08 1.09 1.05 1.02 1.02 1.08 1.14 1.15 1.16 1.17 1.13 1.12 1.11 1.08 1.08 1.09 1.08 1.06 1.03 1.02 1.04 1.03 1.03 1.05 1.06 1.08 1.10 1.10 1.10 1.07 1.04 0.97 0.91 0.89 0.88 0.87 0.83 0.83 0.81 0.82 0.84 0.83 0.86 0.87
0.11 0.11 0.18 0.21 0.23 0.22 0.19 0.22 0.21 0.17 0.16 0.17 0.17 0.18 0.13 0.10 0.16 0.11 0.13 0.13 0.13 0.14 0.14 0.19 0.21 0.38 0.28 0.50 0.52 0.55 0.58 0.62 0.67 0.71 0.77 0.83 0.86 0.90 0.92 0.94 0.99 1.03 1.05 1.06 1.03 1.01 1.06 1.14 1.16 1.15 1.16 1.18 1.19 1.16 1.15 1.13 1.11 1.10 1.09 1.08 1.06 1.04 1.03 1.03 1.03 1.05 1.08 1.09 1.10 1.08 1.06 1.04 0.99 0.93 0.91 0.89 0.89 0.88 0.86 0.84 0.82 0.82 0.84 0.87 0.89 0.91
0.14 0.11 0.18 0.19 0.23 0.22 0.20 0.21 0.21 0.21 0.12 0.15 0.16 0.12 0.13 0.17 0.17 0.15 0.16 0.19 0.18 0.15 0.15 0.30 0.26 0.36 0.51 0.50 0.53 0.53 0.54 0.58 0.63 0.66 0.72 0.79 0.85 0.87 0.89 0.92 0.99 1.03 1.03 1.04 1.04 1.05 1.10 1.14 1.16 1.18 1.20 1.20 1.23 1.21 1.17 1.15 1.14 1.11 1.11 1.09 1.06 1.04 1.03 1.04 1.06 1.07 1.09 1.08 1.06 1.05 1.02 0.97 0.90 0.88 0.85 0.83 0.83 0.85 0.87 0.86 0.84 0.83 0.86 0.89 0.89 0.89
0.12 0.13 0.18 0.19 0.17 0.22 0.24 0.21 0.22 0.22 0.22 0.17 0.12 0.14 0.19 0.21 0.20 0.16 0.13 0.16 0.15 0.12 0.16 0.26 0.21 0.25 0.27 0.21 0.50 0.50 0.48 0.54 0.58 0.62 0.67 0.77 0.83 0.82 0.88 0.96 0.99 1.03 1.06 1.05 1.06 1.09 1.13 1.16 1.18 1.20 1.21 1.21 1.21 1.22 1.20 1.16 1.14 1.12 1.10 1.08 1.03 1.02 1.02 1.05 1.07 1.06 1.06 1.05 1.03 0.99 0.94 0.90 0.88 0.87 0.85 0.85 0.83 0.85 0.83 0.83 0.83 0.84 0.85 0.85 0.87 0.88
0.18 0.13 0.15 0.19 0.20 0.21 0.24 0.22 0.20 0.23 0.23 0.18 0.15 0.20 0.13 0.11 0.12 0.17 0.16 0.12 0.12 0.12 0.16 0.24 0.30 0.27 0.29 0.29 0.41 0.40 0.43 0.48 0.55 0.62 0.65 0.70 0.77 0.80 0.85 0.96 1.01 1.05 1.04 1.00 1.02 1.08 1.12 1.12 1.17 1.17 1.18 1.20 1.19 1.20 1.22 1.21 1.16 1.12 1.08 1.07 1.04 1.03 1.05 1.05 1.06 1.06 1.07 1.06 1.00 0.94 0.90 0.88 0.87 0.86 0.85 0.86 0.86 0.85 0.82 0.80 0.81 0.83 0.84 0.86 0.86 0.86
0.19 0.14 0.16 0.19 0.20 0.22 0.22 0.20 0.14 0.16 0.21 0.22 0.22 0.17 0.16 0.14 0.12 0.13 0.15 0.17 0.16 0.13 0.16 0.20 0.28 0.23 0.35 0.36 0.40 0.38 0.44 0.48 0.53 0.57 0.60 0.66 0.73 0.78 0.84 0.90 0.96 0.98 0.99 1.01 1.03 1.05 1.09 1.13 1.17 1.17 1.17 1.19 1.19 1.17 1.18 1.18 1.18 1.14 1.11 1.10 1.08 1.09 1.08 1.06 1.05 1.06 1.02 1.00 0.95 0.91 0.90 0.88 0.87 0.86 0.85 0.85 0.84 0.82 0.80 0.80 0.81 0.82 0.82 0.83 0.85 0.85
0.17 0.18 0.15 0.18 0.22 0.23 0.17 0.18 0.15 0.16 0.16 0.17 0.17 0.15 0.14 0.13 0.17 0.16 0.18 0.16 0.16 0.15 0.15 0.18 0.18 0.24 0.33 0.44 0.45 0.47 0.51 0.52 0.52 0.54 0.61 0.67 0.73 0.81 0.89 0.94 0.96 0.98 0.98 0.99 1.01 1.05 1.10 1.13 1.16 1.18 1.18 1.19 1.22 1.22 1.17 1.15 1.13 1.12 1.12 1.09 1.09 1.05 1.03 1.03 1.03 1.01 0.97 0.94 0.91 0.88 0.85 0.84 0.85 0.85 0.86 0.85 0.85 0.81 0.81 0.81 0.82 0.83 0.84 0.85 0.84 0.85
0.19 0.17 0.16 0.20 0.17 0.18 0.17 0.19 0.19 0.19 0.19 0.17 0.16 0.14 0.14 0.12 0.12 0.11 0.12 0.19 0.19 0.18 0.17 0.17 0.16 0.26 0.36 0.51 0.51 0.54 0.60 0.63 0.69 0.69 0.69 0.71 0.74 0.81 0.88 0.95 1.01 1.01 1.02 1.03 1.05 1.10 1.12 1.11 1.10 1.12 1.15 1.18 1.22 1.20 1.17 1.17 1.15 1.13 1.10 1.09 1.08 1.05 1.01 0.97 0.95 0.94 0.93 0.90 0.88 0.85 0.85 0.85 0.86 0.85 0.85 0.83 0.83 0.82 0.82 0.82 0.82 0.84 0.83 0.82 0.83 0.85
0.22 0.22 0.19 0.19 0.17 0.17 0.20 0.23 0.22 0.23 0.22 0.21 0.19 0.16 0.17 0.16 0.15 0.13 0.11 0.14 0.19 0.22 0.28 0.23 0.17 0.21 0.44 0.54 0.57 0.59 0.66 0.69 0.73 0.74 0.73 0.76 0.78 0.83 0.89 0.94 0.98 1.04 1.04 1.05 1.05 1.07 1.11 1.10 1.10 1.08 1.14 1.14 1.13 1.15 1.16 1.16 1.15 1.12 1.09 1.08 1.06 1.00 0.96 0.95 0.94 0.93 0.89 0.86 0.84 0.83 0.85 0.85 0.84 0.84 0.84 0.82 0.83 0.81 0.81 0.82 0.83 0.84 0.81 0.81 0.82 0.85
0.25 0.20 0.18 0.21 0.22 0.23 0.24 0.26 0.25 0.25 0.25 0.22 0.20 0.20 0.18 0.15 0.15 0.13 0.14 0.17 0.17 0.22 0.21 0.21 0.16 0.25 0.46 0.60 0.63 0.66 0.71 0.75 0.78 0.78 0.76 0.79 0.83 0.86 0.90 0.94 0.98 1.00 1.04 1.07 1.08 1.09 1.10 1.10 1.11 1.10 1.10 1.12 1.12 1.13 1.13 1.13 1.12 1.11 1.08 1.06 1.03 0.97 0.94 0.93 0.92 0.89 0.86 0.84 0.83 0.84 0.83 0.83 0.84 0.83 0.83 0.81 0.81 0.80 0.81 0.81 0.82 0.83 0.81 0.82 0.83 0.82
0.18 0.21 0.19 0.19 0.18 0.19 0.21 0.23 0.23 0.25 0.25 0.22 0.19 0.19 0.19 0.18 0.18 0.18 0.18 0.20 0.16 0.19 0.19 0.18 0.15 0.21 0.44 0.62 0.67 0.68 0.70 0.70 0.73 0.78 0.81 0.78 0.82 0.86 0.90 0.94 0.99 1.01 1.02 1.03 1.04 1.05 1.05 1.05 1.06 1.06 1.08 1.09 1.10 1.12 1.11 1.10 1.10 1.08 1.05 1.04 0.99 0.95 0.94 0.92 0.90 0.86 0.84 0.82 0.81 0.82 0.82 0.82 0.82 0.82 0.81 0.80 0.80 0.80 0.80 0.81 0.81 0.82 0.82 0.82 0.81 0.82
0.20 0.21 0.19 0.18 0.15 0.13 0.13 0.14 0.16 0.18 0.19 0.21 0.22 0.21 0.20 0.19 0.19 0.17 0.14 0.16 0.14 0.18 0.21 0.18 0.18 0.29 0.48 0.59 0.63 0.66 0.66 0.68 0.74 0.77 0.80 0.83 0.82 0.83 0.88 0.92 0.95 0.96 0.97 0.99 1.00 1.01 1.02 1.04 1.05 1.04 1.04 1.07 1.09 1.10 1.09 1.09 1.09 1.07 1.05 1.01 0.98 0.93 0.91 0.88 0.87 0.83 0.81 0.80 0.79 0.80 0.81 0.81 0.81 0.81 0.80 0.80 0.80 0.80 0.80 0.81 0.81 0.82 0.82 0.81 0.80 0.80
0.21 0.24 0.21 0.21 0.21 0.19 0.19 0.20 0.23 0.24 0.22 0.20 0.20 0.20 0.20 0.20 0.20 0.18 0.18 0.16 0.14 0.18 0.18 0.20 0.21 0.27 0.35 0.45 0.53 0.60 0.63 0.62 0.64 0.69 0.71 0.74 0.81 0.87 0.90 0.91 0.92 0.94 0.97 1.00 1.01 1.02 1.03 1.04 1.02 1.01 1.03 1.07 1.08 1.08 1.08 1.05 1.03 1.04 1.02 0.98 0.95 0.92 0.88 0.86 0.84 0.82 0.80 0.80 0.80 0.80 0.80 0.81 0.80 0.80 0.80 0.80 0.80 0.80 0.81 0.81 0.82 0.82 0.80 0.81 0.80 0.79
0.23 0.21 0.22 0.23 0.24 0.25 0.28 0.27 0.28 0.26 0.23 0.23 0.22 0.20 0.21 0.20 0.20 0.18 0.16 0.15 0.19 0.18 0.16 0.23 0.28 0.24 0.29 0.39 0.46 0.53 0.61 0.65 0.68 0.70 0.72 0.75 0.78 0.81 0.85 0.89 0.92 0.94 0.97 0.98 0.99 1.00 1.00 1.01 1.01 1.00 1.03 1.05 1.06 1.07 1.05 1.01 0.98 0.98 0.97 0.93 0.91 0.88 0.86 0.84 0.82 0.81 0.81 0.81 0.81 0.80 0.80 0.81 0.82 0.81 0.81 0.80 0.80 0.81 0.81 0.81 0.81 0.80 0.80 0.80 0.79 0.78
0.22 0.20 0.24 0.25 0.28 0.33 0.33 0.34 0.33 0.27 0.26 0.26 0.24 0.23 0.21 0.21 0.20 0.18 0.18 0.19 0.20 0.16 0.16 0.23 0.28 0.23 0.29 0.37 0.44 0.49 0.53 0.56 0.61 0.68 0.73 0.78 0.81 0.83 0.84 0.84 0.85 0.87 0.91 0.93 0.96 0.99 0.98 0.98 0.99 1.01 1.03 1.04 1.04 1.03 1.01 0.98 0.96 0.96 0.94 0.92 0.89 0.87 0.85 0.85 0.82 0.81 0.82 0.82 0.81 0.81 0.82 0.82 0.82 0.81 0.81 0.80 0.80 0.80 0.80 0.79 0.79 0.79 0.79 0.79 0.79 0.80
0.23 0.22 0.25 0.26 0.29 0.32 0.35 0.35 0.34 0.28 0.29 0.29 0.28 0.26 0.25 0.23 0.21 0.21 0.20 0.21 0.20 0.18 0.19 0.22 0.26 0.25 0.33 0.41 0.51 0.59 0.66 0.67 0.71 0.76 0.78 0.77 0.78 0.80 0.82 0.82 0.82 0.84 0.87 0.90 0.92 0.94 0.96 0.96 0.98 1.00 1.01 1.01 1.02 1.00 0.99 0.97 0.94 0.92 0.90 0.87 0.86 0.85 0.86 0.85 0.83 0.82 0.82 0.81 0.81 0.82 0.82 0.81 0.81 0.80 0.80 0.80 0.79 0.79 0.79 0.79 0.78 0.78 0.78 0.78 0.78 0.79
0.23 0.22 0.27 0.26 0.26 0.31 0.37 0.38 0.36 0.32 0.30 0.27 0.31 0.30 0.28 0.26 0.26 0.25 0.24 0.25 0.25 0.23 0.25 0.25 0.25 0.26 0.41 0.52 0.56 0.65 0.70 0.72 0.72 0.71 0.72 0.75 0.78 0.80 0.80 0.81 0.83 0.85 0.88 0.91 0.92 0.94 0.96 0.98 1.00 1.00 0.99 0.98 0.98 0.98 0.99 0.99 0.95 0.92 0.89 0.87 0.85 0.84 0.86 0.86 0.83 0.83 0.82 0.80 0.82 0.81 0.81 0.80 0.79 0.79 0.78 0.78 0.78 0.78 0.78 0.77 0.77 0.77 0.76 0.76 0.76 0.76
0.24 0.27 0.31 0.26 0.24 0.30 0.37 0.37 0.35 0.35 0.33 0.30 0.30 0.30 0.28 0.26 0.24 0.25 0.23 0.27 0.23 0.22 0.26 0.26 0.24 0.24 0.40 0.54 0.60 0.64 0.66 0.66 0.64 0.68 0.71 0.74 0.77 0.79 0.78 0.79 0.81 0.84 0.87 0.89 0.91 0.93 0.92 0.93 0.94 0.93 0.94 0.95 0.98 1.00 1.01 1.00 0.95 0.91 0.87 0.86 0.85 0.85 0.87 0.85 0.84 0.82 0.81 0.81 0.81 0.81 0.80 0.79 0.79 0.78 0.77 0.78 0.77 0.77 0.77 0.76 0.75 0.74 0.74 0.74 0.74 0.75
0.23 0.29 0.27 0.26 0.23 0.29 0.37 0.39 0.35 0.33 0.31 0.27 0.29 0.33 0.33 0.32 0.31 0.31 0.32 0.33 0.30 0.30 0.24 0.20 0.19 0.27 0.39 0.49 0.49 0.54 0.59 0.64 0.67 0.69 0.71 0.75 0.79 0.80 0.80 0.82 0.84 0.85 0.86 0.90 0.89 0.88 0.89 0.90 0.91 0.93 0.95 0.97 1.00 0.98 1.00 1.01 0.95 0.90 0.88 0.85 0.85 0.86 0.86 0.84 0.83 0.82 0.81 0.81 0.81 0.80 0.79 0.79 0.78 0.78 0.77 0.76 0.76 0.76 0.75 0.75 0.73 0.73 0.73 0.72 0.74 0.75
0.26 0.29 0.28 0.29 0.23 0.28 0.37 0.37 0.36 0.29 0.22 0.23 0.41 0.48 0.44 0.35 0.34 0.29 0.28 0.31 0.34 0.33 0.27 0.33 0.29 0.36 0.42 0.47 0.46 0.47 0.51 0.54 0.60 0.70 0.78 0.76 0.77 0.80 0.85 0.88 0.88 0.89 0.90 0.90 0.89 0.88 0.89 0.91 0.92 0.95 0.96 0.96 0.98 0.99 1.02 1.02 0.98 0.93 0.91 0.88 0.86 0.84 0.85 0.83 0.82 0.82 0.81 0.81 0.80 0.80 0.80 0.79 0.78 0.77 0.76 0.76 0.75 0.75 0.74 0.73 0.72 0.73 0.74 0.74 0.74 0.73
0.26 0.28 0.30 0.31 0.26 0.28 0.35 0.35 0.28 0.22 0.23 0.41 0.50 0.52 0.51 0.49 0.45 0.38 0.38 0.38 0.38 0.39 0.37 0.35 0.37 0.36 0.40 0.46 0.50 0.53 0.59 0.67 0.73 0.75 0.78 0.84 0.87 0.86 0.85 0.85 0.85 0.86 0.87 0.86 0.85 0.87 0.88 0.90 0.92 0.93 0.94 0.95 0.98 1.00 1.00 0.99 0.97 0.94 0.90 0.87 0.84 0.85 0.83 0.83 0.81 0.81 0.81 0.80 0.80 0.80 0.79 0.79 0.78 0.76 0.76 0.76 0.75 0.74 0.73 0.72 0.72 0.72 0.72 0.72 0.71 0.69
0.27 0.27 0.31 0.29 0.32 0.34 0.33 0.31 0.21 0.21 0.38 0.48 0.52 0.54 0.57 0.53 0.49 0.43 0.38 0.42 0.43 0.42 0.41 0.37 0.42 0.45 0.47 0.51 0.57 0.63 0.65 0.69 0.74 0.79 0.82 0.87 0.89 0.86 0.82 0.82 0.85 0.86 0.84 0.84 0.85 0.87 0.88 0.90 0.90 0.91 0.93 0.99 1.00 1.00 0.99 0.96 0.95 0.91 0.88 0.87 0.83 0.83 0.83 0.82 0.80 0.79 0.80 0.79 0.79 0.78 0.78 0.78 0.77 0.76 0.75 0.74 0.73 0.72 0.71 0.70 0.69 0.68 0.68 0.68 0.67 0.66
0.29 0.30 0.29 0.29 0.34 0.27 0.30 0.30 0.28 0.37 0.37 0.42 0.42 0.46 0.48 0.39 0.40 0.35 0.28 0.34 0.45 0.48 0.46 0.43 0.47 0.49 0.50 0.53 0.57 0.62 0.67 0.69 0.67 0.71 0.83 0.86 0.86 0.87 0.86 0.84 0.84 0.82 0.84 0.86 0.88 0.87 0.90 0.91 0.91 0.93 0.97 0.99 1.00 0.99 0.96 0.95 0.93 0.90 0.86 0.83 0.82 0.82 0.82 0.81 0.80 0.78 0.78 0.78 0.78 0.78 0.79 0.78 0.77 0.75 0.73 0.72 0.71 0.69 0.68 0.66 0.66 0.65 0.65 0.62 0.61 0.59
0.31 0.26 0.29 0.26 0.30 0.33 0.29 0.28 0.29 0.28 0.24 0.31 0.41 0.51 0.57 0.56 0.53 0.49 0.38 0.35 0.48 0.52 0.53 0.49 0.47 0.49 0.49 0.53 0.56 0.61 0.65 0.58 0.52 0.59 0.73 0.80 0.82 0.82 0.85 0.85 0.86 0.86 0.88 0.88 0.89 0.90 0.91 0.92 0.93 0.96 0.97 0.98 0.98 0.99 0.96 0.94 0.90 0.87 0.84 0.82 0.82 0.81 0.80 0.80 0.78 0.77 0.77 0.76 0.78 0.78 0.79 0.78 0.76 0.74 0.72 0.70 0.68 0.66 0.65 0.65 0.64 0.62 0.61 0.57 0.55 0.52
0.35 0.33 0.30 0.27 0.31 0.32 0.30 0.26 0.26 0.24 0.26 0.35 0.41 0.49 0.56 0.58 0.55 0.56 0.36 0.29 0.44 0.51 0.54 0.52 0.49 0.52 0.50 0.48 0.53 0.59 0.55 0.44 0.43 0.52 0.69 0.75 0.78 0.82 0.82 0.84 0.85 0.86 0.88 0.89 0.88 0.88 0.90 0.92 0.94 0.95 0.95 0.97 0.94 0.94 0.95 0.92 0.88 0.85 0.82 0.82 0.82 0.81 0.79 0.77 0.76 0.76 0.75 0.76 0.77 0.77 0.77 0.76 0.74 0.71 0.69 0.66 0.64 0.63 0.61 0.59 0.57 0.56 0.54 0.51 0.48 0.45
0.33 0.32 0.32 0.29 0.28 0.29 0.28 0.25 0.24 0.27 0.28 0.36 0.44 0.50 0.57 0.61 0.57 0.44 0.26 0.26 0.40 0.48 0.53 0.52 0.50 0.51 0.54 0.54 0.52 0.51 0.46 0.39 0.42 0.54 0.70 0.74 0.79 0.81 0.81 0.81 0.81 0.83 0.86 0.89 0.91 0.90 0.91 0.93 0.91 0.93 0.95 0.93 0.94 0.95 0.93 0.90 0.86 0.84 0.82 0.82 0.82 0.80 0.77 0.75 0.75 0.76 0.75 0.74 0.74 0.73 0.73 0.72 0.70 0.67 0.64 0.61 0.60 0.58 0.55 0.54 0.51 0.49 0.45 0.42 0.39 0.36
0.31 0.32 0.31 0.27 0.28 0.30 0.28 0.27 0.29 0.31 0.37 0.43 0.48 0.55 0.58 0.60 0.49 0.28 0.22 0.31 0.42 0.48 0.52 0.52 0.50 0.53 0.55 0.54 0.54 0.45 0.52 0.52 0.54 0.65 0.71 0.76 0.78 0.80 0.83 0.86 0.85 0.85 0.85 0.87 0.88 0.91 0.90 0.91 0.90 0.87 0.89 0.92 0.95 0.94 0.92 0.88 0.84 0.82 0.82 0.82 0.81 0.77 0.76 0.76 0.75 0.74 0.73 0.72 0.70 0.68 0.67 0.67 0.65 0.61 0.59 0.57 0.54 0.52 0.49 0.47 0.43 0.40 0.37 0.34 0.32 0.30
0.32 0.32 0.33 0.33 0.29 0.28 0.29 0.26 0.26 0.29 0.38 0.46 0.55 0.58 0.62 0.46 0.28 0.24 0.35 0.48 0.49 0.50 0.57 0.58 0.56 0.58 0.58 0.55 0.55 0.55 0.58 0.63 0.66 0.71 0.72 0.76 0.78 0.80 0.80 0.80 0.81 0.84 0.87 0.88 0.89 0.89 0.88 0.88 0.86 0.87 0.92 0.93 0.95 0.93 0.90 0.87 0.84 0.82 0.81 0.80 0.77 0.76 0.76 0.75 0.74 0.73 0.71 0.70 0.66 0.64 0.62 0.61 0.59 0.57 0.54 0.52 0.49 0.45 0.42 0.40 0.37 0.34 0.31 0.29 0.27 0.25
0.32 0.27 0.27 0.27 0.31 0.31 0.30 0.26 0.24 0.20 0.32 0.49 0.54 0.53 0.57 0.34 0.33 0.45 0.48 0.50 0.52 0.53 0.55 0.58 0.60 0.62 0.64 0.61 0.63 0.62 0.62 0.64 0.67 0.70 0.72 0.75 0.76 0.75 0.74 0.75 0.77 0.79 0.81 0.82 0.84 0.87 0.88 0.84 0.83 0.85 0.88 0.91 0.91 0.91 0.88 0.86 0.82 0.80 0.79 0.76 0.75 0.76 0.75 0.74 0.72 0.71 0.69 0.66 0.63 0.59 0.57 0.56 0.54 0.51 0.49 0.47 0.44 0.40 0.35 0.33 0.31 0.29 0.28 0.26 0.24 0.23
0.41 0.29 0.30 0.31 0.33 0.25 0.25 0.23 0.23 0.28 0.36 0.51 0.48 0.34 0.45 0.44 0.53 0.54 0.53 0.47 0.55 0.56 0.56 0.58 0.62 0.65 0.67 0.64 0.63 0.64 0.65 0.66 0.69 0.72 0.72 0.73 0.74 0.75 0.76 0.77 0.79 0.81 0.82 0.84 0.86 0.87 0.86 0.83 0.85 0.88 0.89 0.89 0.88 0.87 0.87 0.86 0.82 0.79 0.77 0.74 0.76 0.76 0.74 0.72 0.70 0.67 0.64 0.61 0.59 0.56 0.54 0.52 0.50 0.49 0.47 0.43 0.39 0.34 0.30 0.28 0.27 0.26 0.25 0.24 0.23 0.21
0.43 0.35 0.36 0.30 0.37 0.30 0.27 0.29 0.40 0.45 0.47 0.52 0.52 0.51 0.53 0.57 0.57 0.58 0.57 0.55 0.53 0.56 0.62 0.61 0.62 0.67 0.69 0.68 0.67 0.67 0.66 0.70 0.71 0.72 0.70 0.70 0.72 0.74 0.74 0.76 0.77 0.79 0.80 0.81 0.82 0.85 0.85 0.84 0.83 0.85 0.87 0.87 0.86 0.86 0.86 0.85 0.80 0.77 0.75 0.75 0.75 0.73 0.70 0.68 0.65 0.62 0.59 0.57 0.55 0.53 0.51 0.49 0.48 0.46 0.42 0.38 0.33 0.29 0.27 0.26 0.25 0.23 0.24 0.23 0.22 0.21
0.51 0.49 0.51 0.41 0.38 0.46 0.47 0.48 0.53 0.50 0.51 0.52 0.56 0.58 0.56 0.58 0.60 0.60 0.58 0.54 0.58 0.61 0.65 0.63 0.66 0.69 0.71 0.73 0.68 0.68 0.69 0.71 0.70 0.70 0.72 0.73 0.74 0.77 0.79 0.79 0.80 0.81 0.82 0.81 0.81 0.83 0.84 0.84 0.84 0.85 0.84 0.84 0.84 0.83 0.81 0.79 0.78 0.73 0.72 0.72 0.70 0.69 0.66 0.64 0.60 0.57 0.55 0.53 0.52 0.50 0.48 0.46 0.44 0.41 0.37 0.33 0.31 0.28 0.27 0.25 0.24 0.22 0.22 0.22 0.21 0.20
0.49 0.51 0.46 0.38 0.46 0.37 0.31 0.46 0.47 0.48 0.52 0.54 0.55 0.59 0.61 0.60 0.61 0.62 0.61 0.60 0.62 0.65 0.66 0.69 0.70 0.73 0.75 0.74 0.72 0.70 0.70 0.73 0.72 0.72 0.73 0.74 0.75 0.76 0.77 0.78 0.79 0.80 0.79 0.79 0.81 0.83 0.83 0.82 0.81 0.80 0.79 0.78 0.79 0.79 0.78 0.76 0.71 0.69 0.68 0.66 0.65 0.64 0.62 0.59 0.56 0.53 0.52 0.49 0.48 0.47 0.46 0.42 0.38 0.34 0.32 0.30 0.28 0.27 0.26 0.25 0.24 0.23 0.22 0.21 0.20 0.19
0.37 0.53 0.42 0.42 0.42 0.36 0.35 0.46 0.51 0.54 0.56 0.57 0.57 0.55 0.56 0.59 0.61 0.63 0.64 0.65 0.65 0.67 0.68 0.69 0.72 0.73 0.76 0.73 0.74 0.72 0.72 0.74 0.73 0.72 0.72 0.73 0.75 0.77 0.78 0.78 0.78 0.78 0.80 0.81 0.82 0.83 0.82 0.81 0.80 0.79 0.78 0.78 0.78 0.75 0.71 0.67 0.64 0.63 0.63 0.62 0.61 0.60 0.58 0.55 0.51 0.49 0.47 0.45 0.44 0.43 0.41 0.36 0.33 0.30 0.28 0.27 0.26 0.25 0.24 0.24 0.24 0.22 0.21 0.21 0.20 0.19
0.49 0.50 0.35 0.40 0.36 0.41 0.46 0.49 0.51 0.53 0.53 0.55 0.57 0.59 0.60 0.61 0.60 0.61 0.64 0.65 0.66 0.65 0.67 0.70 0.74 0.74 0.75 0.74 0.75 0.74 0.72 0.73 0.75 0.74 0.73 0.74 0.76 0.77 0.78 0.78 0.78 0.77 0.79 0.79 0.80 0.81 0.80 0.79 0.78 0.78 0.77 0.76 0.74 0.71 0.67 0.63 0.61 0.60 0.59 0.59 0.58 0.56 0.53 0.49 0.47 0.45 0.43 0.42 0.41 0.39 0.36 0.32 0.30 0.27 0.26 0.25 0.25 0.25 0.25 0.24 0.24 0.23 0.23 0.25 0.25 0.23
0.46 0.39 0.46 0.44 0.36 0.36 0.37 0.43 0.49 0.38 0.38 0.48 0.55 0.59 0.61 0.63 0.63 0.62 0.63 0.63 0.64 0.65 0.67 0.67 0.70 0.74 0.77 0.78 0.77 0.76 0.74 0.74 0.76 0.76 0.75 0.75 0.76 0.77 0.77 0.77 0.77 0.77 0.78 0.80 0.81 0.80 0.79 0.79 0.78 0.77 0.76 0.74 0.72 0.68 0.64 0.60 0.59 0.58 0.57 0.57 0.55 0.52 0.48 0.45 0.43 0.41 0.39 0.38 0.35 0.32 0.30 0.28 0.27 0.26 0.24 0.23 0.23 0.23 0.24 0.26 0.26 0.25 0.23 0.23 0.25 0.25
0.45 0.47 0.47 0.41 0.39 0.40 0.49 0.53 0.56 0.53 0.51 0.55 0.59 0.63 0.64 0.66 0.66 0.63 0.62 0.62 0.64 0.68 0.71 0.69 0.67 0.68 0.71 0.74 0.78 0.79 0.78 0.77 0.76 0.79 0.77 0.76 0.77 0.78 0.79 0.78 0.77 0.77 0.77 0.78 0.77 0.77 0.77 0.77 0.77 0.76 0.74 0.72 0.70 0.65 0.61 0.58 0.57 0.57 0.57 0.56 0.53 0.49 0.45 0.42 0.40 0.38 0.36 0.33 0.30 0.28 0.26 0.26 0.25 0.24 0.23 0.23 0.22 0.22 0.21 0.21 0.24 0.25 0.25 0.25 0.25 0.25
Wind_Speed
27 27 27 27 26 25 25 24 22 21 20 19 18 18 18 17 18 17 16 17 18 19 20 19 19 19 20 20 19 19 18 16 17 18 18 18 18 18 18 17 16 14 14 13 13 13 12 11 11 11 11 11 10 10 11 11 10 10 10 10 10 10 10 10 10 9 9 9 8 8 7 7 7 7 8 9 9 10 11 12 12 13 13 14 14 14
27 28 28 27 26 25 24 24 22 21 20 19 19 19 18 18 18 17 17 16 17 18 19 19 19 20 21 20 19 19 18 17 19 20 21 20 18 19 19 18 16 14 14 14 13 12 11 11 11 10 10 10 10 10 11 11 10 10 10 10 10 10 10 10 10 9 9 9 8 7 7 7 7 8 8 9 9 10 11 12 13 13 14 14 14 14
27 28 28 26 25 24 23 23 22 22 22 20 19 19 19 19 18 17 16 15 15 17 18 19 19 20 20 19 19 20 19 18 18 19 21 22 20 19 20 19 17 16 15 14 13 12 11 11 10 10 10 10 10 11 11 11 10 10 10 10 10 10 10 10 9 9 8 8 7 7 7 7 7 8 8 9 10 11 11 12 13 13 14 15 15 15
27 27 28 26 25 24 23 23 23 22 22 21 21 20 20 19 17 17 17 16 15 16 17 18 18 19 19 19 20 20 19 16 15 15 19 21 19 19 20 20 18 17 15 14 13 12 11 11 10 9 10 10 11 11 11 11 10 10 10 9 10 9 9 9 9 8 7 7 6 6 6 6 7 7 8 9 10 11 12 12 13 14 14 15 15 16
26 26 26 26 25 25 24 23 23 23 23 22 22 22 20 19 18 18 17 16 15 15 16 16 16 18 20 21 21 20 18 17 15 15 17 18 18 18 18 19 19 17 15 14 13 12 11 10 10 9 10 11 11 11 11 10 9 9 9 9 9 9 8 8 8 7 7 6 6 6 6 6 7 8 9 10 11 12 12 13 13 14 15 15 16 16
26 24 24 25 25 25 25 24 24 23 23 23 23 23 21 20 19 18 16 15 14 15 16 16 17 19 20 22 22 20 20 18 17 17 17 17 18 18 17 18 18 16 15 14 13 11 11 10 10 10 11 11 11 11 10 10 9 9 9 9 9 9 8 8 7 7 7 6 6 6 6 6 7 8 9 11 12 12 13 14 14 15 16 16 17 17
25 23 23 25 26 26 25 25 24 23 22 22 23 23 21 20 20 18 16 15 15 17 17 17 18 19 19 22 23 21 21 19 18 19 19 19 19 20 19 17 17 16 14 14 12 11 10 10 10 10 11 11 11 10 10 10 9 9 9 9 9 9 8 8 7 7 6 6 6 5 6 7 8 9 10 11 12 13 14 14 15 16 16 16 17 17
25 25 23 24 25 26 26 25 25 24 22 22 22 22 21 21 21 20 17 17 17 17 17 16 18 18 19 21 22 21 22 20 20 20 19 19 20 21 21 18 16 16 15 13 12 11 10 10 10 11 11 11 10 10 10 10 9 9 9 9 9 9 9 8 8 7 6 6 6 6 7 8 9 10 11 12 13 14 14 15 15 15 16 16 17 17
24 26 25 23 24 26 26 25 25 23 22 22 22 22 22 22 21 20 19 19 17 17 18 18 18 18 19 20 20 22 23 22 22 21 19 19 21 22 22 18 16 15 15 13 12 11 10 10 10 11 11 10 10 10 10 10 10 10 10 9 9 9 9 9 8 7 6 6 6 7 8 9 10 11 12 13 13 14 15 15 15 16 16 16 17 17
22 25 26 24 24 25 25 24 24 24 21 21 21 20 19 19 18 18 18 19 17 17 20 20 18 17 18 19 20 22 24 23 22 21 19 20 22 23 21 18 16 15 14 14 12 11 10 10 10 11 10 10 10 10 10 10 10 10 10 9 9 9 9 9 8 7 6 7 7 8 9 10 11 12 13 13 14 15 15 15 16 16 16 16 17 17
21 22 24 24 24 24 24 23 24 24 21 20 20 19 18 17 17 17 17 18 17 18 20 22 20 18 17 19 21 22 22 22 21 20 19 20 22 22 20 18 17 15 15 14 12 12 11 11 11 11 10 10 10 10 11 11 11 11 10 10 9 9 9 9 8 7 7 8 9 9 10 11 12 13 14 14 15 15 15 15 16 16 16 17 17 17
22 21 23 25 25 23 23 23 23 23 21 20 19 20 19 18 17 16 17 17 17 18 20 20 20 19 19 19 20 20 20 21 22 21 20 21 22 21 19 18 18 16 15 15 13 12 12 12 12 12 11 10 10 10 10 10 11 11 10 10 10 9 9 9 8 8 8 9 10 11 12 12 13 13 14 14 15 15 15 15 16 16 16 17 17 17
25 24 22 23 26 25 23 23 23 22 23 22 20 21 21 18 18 18 18 18 18 18 19 18 18 19 20 20 20 20 20 20 22 22 21 21 20 20 19 19 19 18 16 15 14 13 12 12 12 12 12 11 11 11 10 10 10 11 10 10 10 9 9 9 8 9 9 10 11 12 13 13 13 13 14 14 15 15 15 16 16 16 16 17 17 17
24 25 24 23 24 26 26 25 25 24 25 25 23 22 22 19 18 19 18 16 17 18 18 18 17 17 18 18 18 19 19 19 20 20 21 21 20 19 20 19 19 19 18 16 15 14 13 13 12 12 12 12 12 12 11 10 10 10 10 10 9 9 9 9 9 9 10 11 12 13 13 13 13 14 14 15 15 15 15 15 16 16 16 17 17 18
25 24 26 26 24 26 28 26 25 25 24 24 24 22 22 21 19 18 18 17 17 17 17 17 17 16 16 16 17 17 17 18 19 19 20 21 21 20 20 21 20 19 18 17 16 15 14 13 12 11 11 12 12 12 11 10 10 10 10 9 9 9 9 9 10 10 11 12 13 13 13 13 13 14 14 15 15 15 15 15 15 16 16 16 17 18
26 24 25 26 25 25 27 26 24 23 23 23 23 23 23 23 19 16 16 17 16 15 15 17 16 15 15 15 15 16 17 18 18 19 20 21 21 21 21 21 20 19 19 18 16 15 14 13 12 11 11 11 12 12 11 10 10 10 10 9 9 9 9 10 11 11 12 12 13 13 12 12 13 13 14 14 14 14 14 15 15 15 16 16 17 18
24 23 23 24 25 24 25 27 26 24 23 22 24 26 25 23 19 16 15 14 14 15 15 16 16 15 14 14 15 17 17 17 18 19 21 22 22 21 20 21 20 19 18 18 16 15 14 14 13 12 10 10 11 12 11 11 10 10 9 9 9 9 10 11 11 12 12 13 13 12 12 12 13 13 14 14 14 14 14 15 15 15 16 17 18 19
23 22 22 23 25 25 24 25 25 25 24 23 24 26 23 20 20 18 16 13 13 15 16 15 16 16 14 14 16 18 18 18 18 19 22 23 22 20 19 20 20 18 17 17 16 15 15 14 13 12 11 10 10 11 11 11 11 10 9 9 10 11 11 11 12 12 13 12 12 11 12 12 13 13 13 14 14 14 14 15 15 15 16 17 18 19
22 20 21 23 24 24 22 23 24 25 24 23 23 24 23 22 22 20 18 16 15 15 15 15 16 17 17 16 17 19 19 18 18 19 21 23 22 20 20 19 19 18 17 16 16 15 15 14 13 13 12 10 10 11 11 11 11 10 10 10 11 11 12 12 12 12 12 12 11 11 11 12 12 13 14 14 14 14 14 15 15 15 16 17 18 18
22 19 19 22 23 23 23 24 26 27 25 23 22 23 23 23 22 22 20 17 16 16 15 15 15 17 18 17 17 19 19 18 18 18 21 23 22 21 21 20 19 19 18 17 16 15 15 14 14 13 12 11 11 11 11 11 11 11 11 11 12 12 12 12 13 12 12 11 11 11 11 12 13 14 14 14 14 14 14 15 15 15 16 17 18 18
21 21 18 20 22 23 25 28 28 28 27 25 25 25 25 23 22 21 21 19 16 15 15 15 15 17 18 17 17 18 18 17 18 17 19 21 21 21 21 20 20 19 18 17 17 16 16 15 14 13 12 11 11 11 10 10 10 11 12 13 13 13 12 12 12 12 11 11 11 11 12 12 13 14 14 13 13 13 14 14 15 15 16 17 17 18
20 21 19 19 23 25 26 26 27 27 27 26 26 26 25 24 22 21 20 20 18 16 16 16 15 16 17 16 16 17 17 18 18 17 17 19 20 21 21 21 20 19 18 17 17 16 16 15 14 13 12 11 11 11 11 10 10 11 13 13 13 12 12 12 11 11 11 11 11 11 12 12 13 13 14 13 13 13 13 14 15 15 16 17 17 17
19 20 20 19 22 25 24 22 24 27 26 25 25 24 24 24 24 23 21 20 19 16 15 15 13 15 16 16 16 16 17 18 18 18 17 18 19 20 20 21 20 19 18 17 16 16 15 14 14 13 12 11 10 11 11 11 11 12 13 13 12 12 11 11 11 11 11 11 11 11 12 12 12 13 13 13 13 13 13 14 15 16 16 16 16 17
19 18 19 18 19 21 20 20 22 25 25 24 25 25 25 24 24 24 22 20 19 19 17 14 13 14 15 15 15 15 16 17 18 18 18 18 19 19 20 20 20 19 18 17 16 16 16 15 14 13 13 12 11 11 11 11 12 12 12 12 12 12 12 12 11 11 11 11 11 11 11 12 12 12 12 12 12 13 14 14 15 15 16 16 16 16
20 18 18 18 17 18 20 20 21 24 26 25 25 26 26 25 23 22 22 20 20 21 20 17 15 15 15 15 15 15 16 17 18 19 19 18 18 19 20 20 20 20 19 18 18 17 16 16 15 15 14 13 12 12 11 11 12 12 12 12 12 13 12 12 12 11 11 11 11 11 11 11 11 12 12 12 13 13 13 14 14 14 15 15 16 16
21 19 18 18 18 19 21 23 24 26 26 25 25 26 26 25 24 23 22 21 21 21 20 19 18 17 15 16 16 17 17 18 19 20 20 19 19 19 20 20 20 20 20 20 19 18 18 18 17 16 15 14 13 13 12 12 13 13 13 13 13 13 13 13 12 11 11 11 11 10 10 11 11 11 12 12 12 13 13 13 13 14 14 15 15 16
20 19 20 19 19 19 21 23 24 25 25 25 26 26 27 27 26 24 22 22 22 20 20 21 20 18 18 17 17 18 18 18 19 20 20 20 20 20 20 20 20 20 20 20 20 20 19 18 18 17 15 14 14 14 13 13 14 14 14 14 14 14 13 13 12 11 11 11 10 10 10 10 11 11 12 12 12 12 12 12 13 13 14 14 15 15
20 20 21 19 19 19 20 21 22 23 25 25 26 26 27 26 26 24 24 24 22 20 20 21 20 20 20 19 18 18 19 19 19 20 20 20 21 20 20 20 20 21 21 21 20 20 19 18 18 18 16 15 15 15 14 14 14 14 14 14 14 14 13 12 11 11 10 10 9 9 10 10 10 11 11 11 11 11 11 12 13 13 14 14 15 15
21 22 22 20 18 18 18 19 21 23 23 23 24 26 27 27 27 26 25 24 22 21 21 21 20 20 20 20 20 19 19 19 19 20 20 20 20 20 20 20 20 21 21 21 20 19 19 19 20 19 17 16 16 15 15 15 14 14 14 14 14 13 12 12 11 10 9 9 9 9 9 9 10 10 10 11 11 11 12 12 13 13 14 14 15 15
21 22 22 21 18 16 15 16 18 22 23 21 21 24 25 26 27 26 24 23 22 21 21 21 21 19 18 19 20 19 18 18 19 19 20 20 20 20 20 20 20 20 21 20 20 20 20 20 20 19 17 17 17 16 16 15 15 14 14 14 13 13 12 11 10 10 9 8 8 8 8 9 9 10 10 11 11 11 12 12 13 13 14 14 15 15
21 21 21 21 18 16 15 15 16 20 22 21 20 21 23 24 24 24 23 23 22 20 20 20 20 20 18 18 18 19 19 19 19 20 20 21 21 21 20 20 21 21 21 21 21 20 20 20 19 19 18 18 18 18 17 16 15 15 15 14 13 13 12 11 10 9 8 8 8 8 8 9 9 10 10 10 11 11 12 12 13 13 13 14 14 15
22 20 20 20 19 17 15 14 15 18 19 20 20 20 22 23 24 24 23 23 23 22 20 19 20 21 20 18 17 18 20 21 21 21 21 21 21 21 21 21 21 21 21 20 20 19 19 19 19 18 18 18 18 18 18 17 16 16 15 15 13 12 11 11 10 9 8 8 7 8 8 9 9 9 10 10 11 11 12 12 12 13 13 14 14 15
22 21 21 21 21 19 16 14 15 16 17 18 19 20 21 22 22 22 22 22 23 22 21 21 21 20 20 19 19 18 20 21 22 22 22 22 22 21 21 21 21 21 20 19 19 19 19 19 18 18 18 18 18 18 18 18 17 16 16 15 14 12 12 11 10 9 8 8 8 8 8 9 9 9 10 10 11 11 11 12 12 13 13 14 14 15
22 22 21 21 21 20 18 15 14 15 17 19 20 20 21 21 21 22 22 22 22 21 20 21 20 20 20 20 21 21 20 20 21 21 22 22 21 21 21 22 21 20 19 19 18 18 18 18 17 17 17 17 16 17 17 18 18 17 16 15 14 13 12 12 11 9 9 8 8 8 8 9 9 9 10 10 10 11 11 12 12 13 13 14 14 14
23 22 21 20 19 20 19 16 15 16 18 19 19 19 20 20 21 21 20 21 22 21 20 20 20 20 20 19 19 20 19 19 19 20 21 22 22 21 21 21 20 20 19 18 18 18 17 17 16 16 17 16 16 17 17 17 18 17 16 15 14 13 13 12 10 10 9 8 8 8 8 9 9 9 10 10 10 10 11 12 12 12 13 13 14 14
23 22 21 20 19 19 18 17 17 17 17 17 17 18 19 19 19 19 18 20 22 21 21 21 21 21 19 18 17 18 18 18 19 20 22 23 23 22 22 21 20 20 19 19 18 17 17 17 17 17 17 16 17 18 17 17 18 17 16 15 15 14 13 12 10 10 9 9 8 8 8 9 9 9 9 10 10 11 11 12 12 12 13 13 13 14
23 23 21 20 18 18 18 18 18 16 16 17 18 18 19 19 19 19 18 19 21 21 20 20 21 21 20 18 18 17 18 18 18 20 22 23 22 21 21 21 20 19 18 18 18 17 17 17 17 17 16 16 17 18 18 18 18 17 16 15 15 14 13 11 10 10 9 9 8 8 9 9 9 9 9 10 10 11 11 11 12 12 12 12 12 13
20 22 23 21 19 18 17 17 16 16 17 19 19 19 19 18 19 18 17 18 19 20 20 20 20 21 21 20 19 19 18 18 19 21 22 22 21 20 20 19 19 18 18 17 17 17 16 17 16 16 16 17 17 17 17 18 18 17 16 15 15 14 12 11 10 9 9 8 8 9 9 9 9 9 9 9 10 10 10 11 11 11 11 11 12 12
18 19 21 20 19 19 18 17 17 18 18 19 19 19 18 17 18 17 16 18 20 20 20 20 20 21 22 22 22 21 20 20 20 21 22 21 21 21 20 20 19 18 18 17 17 16 16 16 16 16 16 17 18 17 18 18 17 16 16 15 14 13 11 10 9 9 8 8 8 8 9 9 8 8 9 9 9 9 9 10 10 10 11 11 12 12
17 18 19 20 20 20 20 18 18 18 17 17 17 18 17 17 16 15 16 18 20 20 21 21 21 22 23 23 23 22 22 22 20 21 22 21 20 21 21 20 19 19 18 17 17 16 16 16 16 16 16 17 17 17 18 18 17 16 16 15 13 12 11 10 9 9 8 8 8 8 8 8 8 8 8 9 8 8 9 9 9 10 10 11 11 11
16 17 19 20 20 20 19 18 17 17 17 17 17 17 17 16 15 16 18 18 17 18 20 21 21 22 23 25 24 23 21 19 19 20 21 21 20 20 20 19 19 19 18 17 17 16 16 16 16 16 16 17 17 17 18 17 17 16 15 14 12 11 11 10 9 9 9 8 8 8 7 7 8 8 8 8 8 8 8 9 9 10 10 10 11 11
15 17 18 19 19 19 18 17 15 16 17 17 16 16 17 16 16 18 18 17 17 18 19 20 21 22 23 24 23 21 19 18 19 21 21 21 21 20 19 19 18 18 17 17 17 17 16 15 15 16 17 16 16 17 17 16 16 15 14 14 13 12 11 10 10 9 9 8 8 7 7 7 7 8 7 7 7 7 8 9 9 9 9 9 10 10
15 16 17 18 18 17 16 15 14 15 17 16 15 16 17 18 18 18 17 16 17 19 19 18 20 21 22 22 21 20 20 19 21 22 21 21 21 20 20 19 19 18 17 17 17 17 16 15 16 17 17 16 16 16 16 16 15 15 14 14 13 12 12 11 10 9 9 8 8 8 7 7 7 7 7 7 7 8 8 8 8 8 8 8 8 9
15 15 16 18 18 17 16 17 16 16 16 16 15 16 18 18 18 17 17 17 17 18 19 18 19 20 21 21 21 21 21 21 22 22 21 20 20 20 20 19 19 18 17 17 17 17 17 16 16 16 16 16 16 16 16 16 15 14 14 13 13 12 11 10 10 9 9 8 8 8 8 7 7 7 7 7 7 7 7 7 7 7 7 7 7 8
15 16 16 17 17 17 17 17 17 16 15 15 15 15 17 17 17 17 18 18 18 19 19 19 18 19 21 21 20 21 21 22 22 22 21 21 21 20 20 19 19 18 17 17 17 17 17 18 18 17 16 16 15 15 16 16 15 15 14 13 13 12 11 10 10 9 9 9 8 8 8 7 7 7 7 7 6 6 5 6 6 5 6 6 7 7
13 15 15 15 15 16 16 16 15 15 14 15 15 15 15 16 16 17 17 18 19 19 19 19 19 19 20 20 20 20 20 21 22 21 21 21 21 21 20 19 18 18 18 18 18 18 18 18 18 18 17 16 15 15 15 15 15 14 13 13 12 12 11 10 10 9 9 9 9 8 8 7 7 7 6 6 5 5 4 4 4 4 5 6 6 7
12 13 14 14 15 16 16 15 15 15 15 15 15 15 15 15 15 16 16 18 19 19 20 20 20 20 20 21 21 20 21 22 22 21 21 21 21 21 20 19 18 18 18 19 19 19 19 18 18 18 17 16 15 15 15 14 14 13 13 12 12 11 11 11 10 10 9 9 8 8 8 7 7 6 5 4 4 3 3 3 3 4 5 5 6 7
12 12 12 13 14 15 16 16 15 15 15 15 15 15 15 15 14 15 15 16 18 19 20 21 21 21 21 22 22 21 22 22 22 21 21 21 21 21 20 20 19 19 19 19 19 19 19 19 18 18 17 16 15 15 15 14 13 13 12 12 12 11 11 10 10 9 8 8 8 7 7 7 6 5 4 3 3 2 2 2 3 3 4 5 6 7
11 11 12 13 13 14 15 15 15 15 15 15 15 15 15 15 15 14 15 16 17 18 20 21 21 22 22 22 22 22 23 23 23 22 21 21 21 21 21 20 19 19 19 18 19 19 19 19 18 17 16 16 15 15 14 14 13 13 12 12 12 12 11 10 9 9 8 7 7 7 6 6 5 4 4 3 2 1 1 2 3 3 4 5 6 7
11 11 12 12 12 13 15 16 16 15 15 16 16 15 15 15 14 14 15 16 17 19 20 21 21 21 22 22 23 23 24 24 23 23 22 21 21 21 21 20 20 19 19 19 19 19 19 18 18 17 16 15 15 15 14 13 13 12 12 12 12 11 11 10 9 8 7 7 7 6 6 5 5 4 4 3 2 1 1 2 3 4 4 5 6 7
11 11 11 11 12 13 15 16 16 14 14 15 15 14 14 14 13 14 14 15 17 19 21 21 21 21 22 21 22 22 23 23 23 23 22 21 22 22 22 21 20 20 20 20 19 19 18 18 17 16 16 15 15 14 14 13 13 13 12 12 11 11 10 9 8 8 7 7 6 6 6 6 5 5 4 3 2 2 1 1 2 4 5 5 6 7
Wind_Direction
212 214 216 215 214 213 213 212 210 209 209 208 208 209 212 214 216 216 216 221 216 213 217 215 214 216 215 215 213 211 215 219 216 216 220 216 206 204 206 205 206 208 207 205 205 206 206 208 210 212 215 216 216 216 214 214 216 217 217 216 216 217 219 224 228 228 227 228 233 239 248 258 268 279 287 294 299 300 301 302 303 305 307 308 309 309
212 214 217 215 212 210 211 210 207 208 209 209 208 209 214 214 215 215 215 223 220 213 218 216 214 219 217 216 215 212 216 219 217 216 217 218 212 204 204 204 205 206 205 203 203 205 205 208 212 216 217 214 213 213 211 211 214 217 220 218 214 214 219 224 226 226 225 227 232 240 250 261 272 281 289 296 300 302 304 304 305 306 309 310 311 311
213 216 215 212 210 208 210 209 206 208 209 211 210 209 214 215 215 216 216 224 220 211 217 217 215 222 222 219 215 214 218 219 218 217 212 212 212 205 201 202 201 201 201 202 203 205 207 210 214 217 217 214 212 213 211 212 215 218 220 218 214 214 218 222 223 222 222 226 233 243 254 265 276 285 293 298 303 306 308 308 307 308 309 311 311 311
212 217 213 209 207 205 209 209 205 208 210 211 210 209 213 215 212 213 217 224 222 213 213 212 217 226 226 221 218 218 221 218 218 220 211 209 213 210 203 199 198 197 197 199 201 205 208 211 215 216 214 212 211 212 212 213 215 217 216 213 210 211 214 217 216 214 216 223 234 247 259 270 280 290 298 302 305 308 309 309 310 310 310 311 310 310
214 217 209 205 207 205 208 209 206 208 212 214 213 210 211 212 210 211 216 221 222 219 213 210 221 230 226 221 221 222 221 216 215 217 213 212 216 215 207 199 195 195 196 197 200 204 208 213 215 215 212 210 208 209 211 213 213 213 210 206 205 207 209 209 207 207 212 222 237 253 265 276 286 294 300 303 304 306 308 309 310 311 312 312 312 312
214 215 205 203 208 207 207 210 209 208 211 215 216 211 208 208 210 213 218 219 218 221 221 216 222 231 229 223 220 219 217 214 213 214 213 214 214 212 210 202 194 192 194 196 199 203 208 212 214 213 210 206 205 208 211 211 210 209 206 204 204 206 206 205 205 207 213 226 241 256 267 280 289 295 299 302 304 306 309 310 310 311 312 313 313 313
213 210 205 205 207 207 208 211 211 208 207 214 216 210 206 206 208 212 215 217 217 218 221 219 220 227 229 223 219 216 214 212 213 215 213 212 211 208 209 207 196 191 194 197 199 204 209 212 212 211 207 204 205 209 211 212 211 208 203 203 206 208 207 206 207 209 216 230 245 260 273 284 291 295 300 303 306 308 309 309 308 310 311 312 313 314
210 207 206 206 205 207 209 210 211 207 205 214 214 204 205 208 209 211 212 215 219 221 226 225 221 224 227 223 218 213 212 211 212 216 214 210 209 205 206 208 200 192 194 198 199 204 209 211 210 207 204 205 207 210 211 211 211 208 205 206 207 209 210 209 210 214 223 238 253 267 278 287 293 298 303 306 307 308 308 307 308 309 310 312 313 314
209 206 206 205 206 210 210 209 207 204 207 214 210 202 205 209 210 212 213 216 221 224 230 231 223 223 228 225 217 211 211 211 211 214 214 209 207 204 202 204 201 194 194 198 200 203 207 207 205 203 203 206 209 211 212 211 211 210 208 206 205 205 208 208 213 223 235 249 261 271 280 288 295 301 305 306 307 307 307 308 309 310 310 311 313 314
211 208 207 205 209 211 209 207 204 204 209 212 206 203 207 210 212 213 213 216 221 223 226 227 223 223 228 226 216 211 213 213 211 212 213 209 205 204 202 203 203 200 199 201 201 204 207 206 204 203 203 207 212 212 212 211 211 209 206 202 200 203 208 211 219 230 242 256 267 277 285 292 299 303 306 305 306 306 307 308 309 309 309 311 312 314
213 209 208 208 210 209 206 206 206 204 206 205 204 203 206 211 213 215 216 216 219 225 225 224 222 222 228 227 218 215 215 211 209 210 210 209 205 204 204 204 204 204 203 204 205 207 210 209 206 205 205 209 213 214 212 210 210 207 204 201 201 206 212 219 229 239 249 262 273 282 290 296 301 304 305 305 306 306 307 309 310 309 310 311 313 315
213 207 209 209 207 204 203 205 207 206 203 202 203 202 204 213 215 217 221 217 218 225 224 222 221 220 225 228 223 221 216 209 208 208 207 205 202 201 202 202 203 205 205 206 208 211 212 211 211 211 211 212 212 212 209 206 206 204 203 204 207 212 219 228 238 247 258 269 278 286 293 298 302 304 304 305 306 307 309 311 311 311 311 312 314 316
211 209 212 211 205 202 201 203 204 205 204 201 201 199 201 208 212 216 219 217 220 222 219 219 220 222 228 229 226 221 215 210 209 208 205 203 199 198 199 200 204 205 204 206 211 214 215 215 216 216 216 215 212 210 207 205 204 203 204 207 210 216 224 234 244 255 266 275 283 290 295 299 301 303 304 304 306 308 310 311 312 313 314 315 317 319
209 213 214 210 207 203 200 201 202 204 204 202 200 198 198 202 207 214 217 218 222 220 217 219 221 226 231 230 226 221 218 213 208 205 205 204 201 199 198 199 204 205 204 208 212 215 218 216 215 216 217 215 210 208 207 206 206 205 206 209 212 219 228 238 252 264 273 280 287 292 296 298 299 301 303 303 306 309 310 310 312 314 314 316 318 320
205 210 211 207 207 204 202 203 202 201 202 204 203 200 201 203 204 212 214 214 217 216 217 220 220 224 225 226 226 221 219 213 204 201 202 203 203 202 200 200 205 207 205 210 213 214 217 214 210 213 213 211 209 206 207 207 208 208 208 212 217 224 236 249 261 270 276 282 288 293 295 296 297 299 301 303 307 309 310 310 312 313 314 316 318 320
205 211 212 208 205 202 201 202 199 197 202 207 205 203 207 206 203 210 212 210 211 211 214 217 219 221 221 225 224 214 211 207 199 197 199 202 202 201 201 200 204 207 204 207 210 209 211 209 207 210 210 210 209 207 207 207 208 209 213 220 227 236 248 259 266 271 276 282 288 292 293 293 295 298 301 305 308 310 311 311 312 313 314 316 318 320
204 211 215 208 205 204 201 201 201 200 202 204 204 206 209 205 201 208 213 212 208 207 214 217 219 221 221 223 216 204 202 202 199 198 199 202 202 199 201 199 200 203 200 202 206 207 208 208 206 207 208 210 209 207 207 207 209 213 219 228 236 245 255 262 267 272 277 283 288 291 291 292 295 299 302 305 308 310 310 311 312 313 314 316 318 319
202 209 213 206 204 207 202 198 202 204 200 201 206 208 206 203 207 210 210 212 207 208 216 218 217 216 217 219 211 201 200 200 200 200 199 202 202 201 204 201 197 198 198 200 204 205 206 207 206 206 206 206 206 205 206 209 213 218 225 237 246 253 259 264 269 273 278 283 286 287 290 292 296 299 302 305 308 309 311 313 313 313 314 317 318 319
203 207 214 206 202 204 200 196 201 206 204 204 206 206 202 204 209 208 206 209 207 209 218 220 220 218 216 216 210 204 203 201 202 203 200 202 203 200 203 202 197 196 200 201 201 202 203 204 207 207 204 203 204 207 211 216 222 225 231 242 250 257 262 266 271 275 279 282 283 285 289 293 296 299 303 305 307 310 313 315 315 314 315 317 318 319
203 203 211 209 202 199 199 200 202 205 206 205 204 205 204 206 208 206 208 210 206 209 215 218 223 224 219 216 211 207 206 203 203 204 202 202 201 197 198 200 197 197 200 202 203 204 203 202 205 206 205 206 209 213 219 224 229 232 240 248 253 259 264 268 271 273 276 278 280 284 289 293 296 299 302 304 306 310 314 315 315 315 316 317 319 319
203 202 207 208 202 199 203 205 203 201 202 203 203 205 205 206 206 207 211 213 209 209 213 215 223 227 221 216 212 209 208 205 203 202 201 199 197 195 196 198 199 198 199 203 205 205 202 202 206 208 210 213 216 222 228 233 237 242 248 254 257 261 264 265 267 269 272 275 280 285 290 293 296 299 301 304 308 310 312 313 314 315 316 317 319 320
201 201 203 204 202 203 207 207 202 200 202 204 205 206 206 205 203 204 211 215 211 210 212 212 221 227 221 216 215 211 208 208 205 201 200 198 195 194 196 199 201 198 198 204 207 205 204 207 212 214 215 218 224 232 237 240 243 248 252 255 257 259 260 261 263 267 272 276 281 287 292 295 297 299 302 305 307 309 310 312 315 316 317 318 320 322
199 198 200 204 205 206 208 208 202 200 202 204 207 208 206 206 205 205 210 213 209 212 214 211 218 225 220 217 217 210 207 207 204 200 199 197 196 195 196 200 201 198 200 205 208 208 209 212 215 218 221 226 233 238 241 243 246 249 252 252 252 256 258 259 261 266 272 276 282 288 292 296 298 300 303 305 306 309 311 313 315 317 319 321 322 323
200 198 199 205 208 208 208 207 203 201 202 205 209 208 206 209 209 209 212 213 211 213 214 214 221 225 221 218 213 204 203 204 202 199 196 197 198 195 196 200 201 200 204 207 209 211 214 217 220 222 225 232 239 242 243 245 246 248 250 249 251 255 258 259 261 265 271 276 282 287 292 296 298 300 304 306 307 310 312 313 316 319 321 322 323 324
201 201 199 198 201 203 204 202 201 202 204 207 209 208 208 208 207 210 214 214 216 216 213 213 221 224 221 216 209 201 201 203 201 199 197 198 199 197 198 202 204 205 208 210 212 215 219 221 221 223 227 233 240 245 246 246 245 246 248 248 250 253 255 257 260 265 269 274 279 285 290 295 298 302 305 307 309 310 312 315 318 321 322 323 325 325
201 202 199 197 197 200 202 203 202 202 204 207 207 207 207 206 205 209 211 212 217 218 215 214 219 221 218 212 208 204 203 204 203 200 200 201 202 202 201 204 207 208 210 212 214 216 218 219 221 226 232 236 241 246 248 248 248 247 247 247 247 249 252 255 259 263 268 273 278 283 289 294 299 303 307 309 310 311 314 317 319 320 322 324 325 326
201 203 201 199 200 203 205 207 208 204 203 205 205 205 207 206 205 208 210 212 215 215 217 221 219 216 214 212 210 207 205 206 206 204 203 203 204 206 206 206 208 209 210 213 215 217 220 223 227 231 234 236 242 247 250 252 251 246 243 243 244 246 250 253 257 261 266 271 276 283 290 296 300 304 308 310 312 314 315 317 318 320 322 323 324 326
201 205 204 201 204 208 208 209 210 207 205 205 204 204 206 206 205 206 211 214 212 210 219 224 218 215 217 216 214 210 206 207 208 208 207 205 204 206 207 208 209 209 211 213 216 220 224 227 230 232 233 237 243 247 250 252 250 243 240 240 241 244 247 250 254 258 263 268 275 284 292 297 301 305 310 312 314 315 316 317 319 320 321 323 324 326
200 205 206 203 207 211 211 213 210 205 206 207 205 205 205 205 206 208 212 214 211 212 220 220 215 217 220 217 215 213 209 208 207 206 206 206 205 206 208 210 211 212 213 215 218 222 225 228 231 233 236 239 242 245 248 248 245 239 237 237 238 241 244 247 251 255 260 267 276 286 293 298 303 307 310 312 313 314 315 317 319 320 321 322 323 325
202 204 204 202 206 210 210 214 209 203 205 207 208 209 208 207 209 210 213 215 214 218 222 216 214 222 225 219 217 216 212 209 207 205 205 206 207 207 209 212 213 214 215 216 219 222 226 229 233 236 237 239 240 243 243 242 238 234 233 233 234 237 241 244 247 251 257 266 277 285 292 298 302 306 308 311 313 314 316 318 320 321 322 323 324 325
202 203 203 199 203 209 208 208 206 204 204 204 207 211 208 206 209 212 213 216 217 220 221 215 216 226 228 221 216 213 210 208 208 208 207 208 208 208 209 211 213 214 216 218 221 226 230 233 235 237 239 239 240 240 238 235 232 230 229 229 231 235 237 239 243 249 255 264 273 282 289 295 300 304 308 312 313 315 317 318 320 322 323 324 326 327
200 201 202 197 198 205 203 199 203 204 201 201 206 210 208 207 210 213 215 217 218 216 216 216 221 227 226 219 213 211 209 210 211 211 210 211 211 210 211 212 214 216 218 221 224 229 232 234 236 238 238 238 238 236 231 228 227 227 227 227 230 233 233 235 241 247 253 260 269 278 286 292 298 304 308 312 314 315 317 318 320 322 324 325 327 328
198 198 199 196 195 201 201 197 200 199 197 202 207 207 209 210 211 212 215 219 219 215 215 221 225 225 221 217 215 213 211 212 213 212 211 212 212 212 212 212 214 217 219 222 226 229 232 234 236 236 235 237 237 234 230 225 224 225 226 226 229 231 230 233 240 245 251 258 267 276 284 291 297 303 308 311 313 315 316 319 321 323 324 326 326 327
197 195 198 198 194 198 204 204 201 199 200 206 208 206 208 210 209 211 215 218 219 219 222 226 225 219 217 218 217 215 215 213 212 212 211 210 210 213 214 214 215 217 220 223 227 230 233 234 234 234 235 236 234 232 228 223 221 223 223 224 227 227 227 232 238 243 249 257 265 274 283 290 297 304 309 311 313 315 318 321 322 323 324 325 325 327
196 195 197 199 195 197 204 207 206 206 208 209 210 209 209 210 210 212 217 220 221 223 225 225 222 217 216 218 217 217 216 213 210 210 209 208 208 210 212 214 216 218 221 226 229 230 231 230 230 232 235 233 229 227 223 218 218 220 220 222 224 224 225 231 238 243 248 256 264 272 281 290 298 304 308 311 313 316 319 321 322 323 323 324 326 328
195 196 196 197 197 197 200 204 208 213 214 213 213 213 210 211 212 213 218 222 223 224 223 222 222 221 218 214 214 214 212 209 209 210 210 209 211 211 212 214 217 220 223 226 227 228 227 227 227 229 231 230 226 222 219 217 217 217 219 222 222 221 224 231 238 244 249 255 263 271 280 290 297 302 306 309 312 316 319 320 322 323 323 324 327 329
195 196 196 197 201 200 200 206 214 219 219 215 215 215 212 213 215 213 218 225 225 222 221 219 220 221 217 212 210 208 205 207 213 217 215 214 215 215 215 217 218 220 224 226 227 227 225 225 226 226 226 226 223 219 217 217 217 217 218 220 218 218 224 232 239 244 249 255 264 272 281 288 294 299 303 307 311 316 318 320 322 323 324 326 330 333
197 199 199 199 204 204 201 207 214 218 220 218 217 218 217 216 217 215 218 227 227 221 218 217 216 217 216 212 207 204 206 213 219 220 218 217 218 218 217 218 219 219 221 223 224 225 225 224 224 222 222 222 219 217 216 217 216 216 216 215 215 218 225 232 238 242 247 256 266 274 281 287 292 297 301 306 311 315 318 321 323 325 327 330 334 338
196 201 200 200 204 205 203 206 211 214 219 220 219 220 220 218 218 218 222 230 228 219 215 215 215 216 215 210 207 207 213 220 224 222 218 218 219 218 217 217 218 219 220 222 221 222 224 223 221 220 220 218 215 215 216 215 213 212 211 211 213 218 223 228 233 239 248 258 268 275 281 285 290 295 300 305 311 316 319 323 326 328 330 333 337 340
193 199 199 198 203 205 204 209 216 218 220 221 220 220 219 217 218 218 223 232 229 219 215 215 214 214 213 210 210 214 220 225 226 221 217 217 218 218 216 216 217 218 220 222 221 219 219 219 218 217 217 217 215 212 212 211 209 207 207 208 211 215 220 225 232 240 250 259 267 274 279 283 288 294 299 305 311 317 321 324 327 329 332 335 337 340
193 197 199 199 202 204 205 210 218 221 220 221 220 217 213 215 219 219 223 232 232 222 220 220 217 213 211 211 215 221 226 229 224 215 212 214 215 217 217 216 216 217 217 217 216 213 213 216 216 215 216 216 212 208 206 206 204 203 204 206 210 215 221 228 235 243 249 256 264 270 275 280 287 293 300 305 311 316 321 323 326 329 333 336 339 342
194 197 201 201 202 206 208 212 218 223 221 217 215 215 214 217 223 226 229 235 232 222 221 222 220 216 213 213 218 221 222 220 214 209 211 213 212 213 215 214 214 216 215 213 211 210 212 216 216 214 212 209 204 201 202 203 202 203 205 207 211 217 224 231 237 241 246 252 259 265 271 278 285 292 298 304 308 314 320 323 327 331 335 338 342 348
199 200 204 205 206 210 214 215 218 225 222 214 212 220 224 226 230 233 235 236 229 221 218 219 218 216 214 215 219 217 213 210 207 207 209 211 211 212 213 213 212 212 212 210 210 211 212 214 213 209 205 204 203 204 205 205 203 204 206 210 215 221 226 230 234 239 244 249 255 262 269 276 283 289 296 301 306 313 320 325 329 334 337 341 347 353
208 205 207 209 210 211 214 217 222 227 227 221 221 229 232 232 235 234 232 231 227 221 217 216 216 214 212 214 215 213 209 207 206 205 206 208 209 210 211 211 209 208 208 209 211 212 210 207 206 203 201 203 206 208 207 206 204 205 209 214 217 220 223 228 233 238 242 247 253 261 267 272 279 287 294 300 304 311 320 326 330 336 341 345 351 356
212 211 209 210 212 212 215 220 225 231 232 231 232 236 237 236 236 234 230 228 225 220 217 214 212 211 211 210 209 208 207 205 204 204 204 205 206 207 207 207 206 205 207 208 209 209 205 201 199 199 199 202 206 207 208 208 207 207 209 212 214 217 223 228 232 237 241 247 253 258 262 267 275 285 292 297 301 310 321 326 331 340 345 348 354 359
215 213 211 213 216 218 220 224 227 231 235 235 235 236 237 235 234 232 228 225 222 218 215 212 210 209 208 205 202 201 201 199 199 201 202 202 203 205 204 205 205 205 205 204 204 203 200 198 197 197 198 201 205 207 208 210 209 207 208 211 215 220 225 228 231 236 241 246 250 254 257 264 273 281 287 291 297 308 319 323 332 344 349 352 357 0
216 213 214 217 218 220 225 230 231 232 235 235 236 236 235 233 232 230 226 223 220 216 213 211 209 207 205 202 199 198 197 196 196 198 200 200 201 204 204 204 205 203 201 201 200 198 197 196 196 197 197 200 203 206 207 209 210 210 211 213 216 219 223 227 230 234 238 242 246 251 257 263 268 271 276 282 291 302 313 320 332 348 354 354 357 359
219 218 220 222 222 223 229 234 234 233 235 234 233 233 232 232 232 229 226 223 220 215 213 212 210 207 204 203 201 199 197 197 197 198 200 201 202 203 204 202 201 199 198 198 196 195 195 195 195 196 198 199 202 206 208 209 211 211 211 212 213 216 221 225 228 230 234 239 245 251 256 257 255 253 257 266 276 289 307 320 335 350 354 353 353 355
225 225 225 225 227 229 233 234 233 232 234 234 233 232 232 232 231 229 227 224 219 215 212 211 210 209 207 206 205 201 198 199 198 197 198 200 200 201 201 199 195 193 193 192 192 191 192 193 193 194 195 198 200 203 204 205 207 208 209 210 213 216 219 221 224 228 232 237 243 246 246 243 238 237 239 239 242 264 308 330 339 345 346 347 349 350
227 226 225 225 229 233 233 229 225 226 228 230 229 228 229 230 229 227 226 224 220 215 211 209 209 211 209 207 206 203 199 198 198 197 197 199 199 198 197 193 190 190 190 190 190 190 190 190 191 192 193 196 198 199 201 203 205 207 208 209 212 215 216 217 220 226 230 235 237 234 229 225 224 225 223 216 212 224 296 331 339 343 344 344 345 346
225 225 225 223 225 231 230 222 218 221 225 225 223 223 225 227 227 226 225 224 222 218 213 209 207 208 208 205 204 202 199 199 198 196 196 197 197 195 192 190 189 190 191 191 190 190 190 191 191 192 193 196 198 200 202 204 205 206 208 209 211 214 215 216 217 221 225 226 222 218 216 214 213 210 207 206 215 231 259 303 331 345 348 346 346 348